#timestamp,LO_Frequency,Hit,StdDev 
1571112015.1,286047003.4,P
1571112035.9,286047003.0,P
1571112055.7,286047004.1,P
1571112075.5,286047004.3,Y
1571112095.4,286046997.6,P
1571112115.2,286046997.1,N
1571112135.1,286046999.1,N
1571112136.0,286046999.1,N
1571112155.8,286047000.5,N
1571112175.6,286047000.5,N
1571112195.5,286047001.0,N
1571112215.3,286047000.4,N
1571112235.1,286047000.7,N
1571112255.9,286046998.3,N
1571112275.7,286047000.8,N
1571112295.6,286047001.1,N
1571112315.4,286047001.2,N
1571112335.2,286046999.3,N
1571112355.1,286047001.0,N
1571112356.0,286047001.0,N
1571112375.8,286047000.0,N
1571112395.7,286047000.9,N
1571112415.5,286047001.1,N
1571112435.3,286047000.8,N
1571112455.2,286046998.6,N
1571112475.0,286046999.3,N
1571112475.9,286046999.3,N
1571112495.7,286046999.6,N
1571112515.6,286046999.6,N
1571112535.7,286046999.2,N
1571112555.5,286046996.7,N
1571112575.4,286046996.6,N
1571112595.2,286046995.4,Y
1571112615.0,286046993.3,P
1571112615.9,286046993.3,N
1571112635.8,286046995.1,N
1571112655.6,286046995.8,N
1571112675.5,286046997.1,N
1571112695.3,286046997.3,N
1571112715.1,286046996.9,N
1571112735.9,286046996.9,N
1571112755.7,286046996.5,N
1571112775.6,286046997.2,N
1571112795.4,286046997.5,N
1571112815.2,286046997.1,N
1571112835.1,286046995.9,N
1571112836.0,286046995.9,N
1571112855.8,286046995.7,N
1571112875.6,286046995.6,N
1571112895.5,286046996.4,N
1571112915.3,286046996.4,N
1571112935.2,286046993.6,Y
1571112955.9,286046997.0,P
1571112975.7,286046999.2,N
1571112995.6,286047000.5,N
1571113015.4,286046998.3,N
1571113035.2,286046996.6,N
1571113055.1,286046997.2,N
1571113056.0,286046997.2,N
1571113075.8,286046996.4,N
1571113095.7,286046996.4,N
1571113115.5,286046995.2,Y
1571113135.4,286046999.6,P
1571113155.2,286047001.2,N
1571113175.0,286046998.7,N
1571113175.9,286046998.7,N
1571113195.8,286046998.7,N
1571113215.6,286046997.0,N
1571113235.5,286046999.1,N
1571113255.3,286046999.6,N
1571113275.1,286046998.8,N
1571113295.9,286046996.7,Y
1571113315.7,286046999.1,P
1571113335.5,286046998.8,P
1571113355.4,286046996.9,P
1571113375.2,286046999.4,N
1571113395.1,286046998.7,N
1571113396.0,286046998.7,N
1571113415.8,286047001.2,N
1571113435.6,286047000.9,N
1571113455.5,286046998.4,N
1571113475.3,286047000.6,N
1571113495.1,286046998.6,N
1571113515.9,286046995.9,Y
1571113535.7,286046996.2,P
1571113555.6,286046996.8,N
1571113575.4,286046999.1,N
1571113595.2,286046999.4,N
1571113615.1,286046997.5,N
1571113616.0,286046997.5,N
1571113635.8,286046998.2,N
1571113655.7,286046998.7,N
1571113675.5,286046999.2,N
1571113695.3,286046998.4,N
1571113715.2,286047000.6,N
1571113735.0,286046999.9,N
1571113735.9,286046999.9,N
1571113755.7,286046998.1,N
1571113775.6,286046998.7,N
1571113795.4,286046998.2,N
1571113815.3,286047002.6,N
1571113835.1,286047002.8,N
1571113836.0,286047002.8,N
1571113855.8,286047000.9,N
1571113875.7,286046998.9,N
1571113895.5,286047000.9,N
1571113915.4,286047000.4,N
1571113935.2,286047003.9,N
1571113955.0,286047002.9,N
1571113955.9,286047002.9,N
1571113975.8,286047003.8,N
1571113995.6,286047004.0,N
1571114015.4,286047003.3,N
1571114035.3,286047002.1,N
1571114055.1,286047000.6,N
1571114075.9,286047000.5,N
1571114095.7,286047000.3,N
1571114115.5,286047001.3,N
1571114135.4,286046999.8,N
1571114155.2,286047002.8,N
1571114175.1,286047000.5,N
1571114176.0,286047000.5,N
1571114195.8,286047002.7,N
1571114215.6,286047000.0,N
1571114235.5,286047002.2,N
1571114255.3,286047002.1,N
1571114275.2,286047002.3,N
1571114295.9,286047011.9,Y
1571114315.7,286046999.6,P
1571114335.6,286046996.8,P
1571114355.4,286046999.3,N
1571114375.2,286047000.7,N
1571114395.1,286047011.9,Y
1571114396.0,286047000.2,P
1571114415.8,286047000.3,N
1571114435.7,286047000.0,N
1571114455.5,286046999.9,N
1571114475.3,286046998.5,Y
1571114495.2,286047000.8,P
1571114515.0,286046998.1,P
1571114515.9,286046998.1,N
1571114535.8,286047000.3,N
1571114555.6,286046998.8,N
1571114575.4,286047000.7,N
1571114595.3,286047002.8,N
1571114615.1,286046998.3,N
1571114635.9,286046998.8,N
1571114655.7,286047000.9,N
1571114675.5,286047000.3,N
1571114695.4,286047000.5,N
1571114715.2,286047000.9,N
1571114735.0,286046998.5,N
1571114735.9,286046998.5,N
1571114755.8,286047000.9,N
1571114775.6,286046999.7,N
1571114795.5,286046999.0,N
1571114815.3,286046998.6,N
1571114835.1,286046999.5,N
1571114855.9,286046996.8,N
1571114875.7,286046999.5,N
1571114895.6,286046996.9,N
1571114915.4,286046999.4,N
1571114935.2,286047000.2,N
1571114955.1,286047001.3,N
1571114956.0,286047001.3,N
1571114975.8,286047002.0,N
1571114995.6,286047003.3,N
1571115015.5,286047005.6,Y
1571115035.3,286047004.2,P
1571115055.2,286047003.3,N
1571115075.9,286047001.6,N
1571115095.7,286046999.8,N
1571115115.6,286047001.8,N
1571115135.4,286047004.2,N
1571115155.3,286047002.9,N
1571115175.1,286047004.0,N
1571115176.0,286047004.0,N
1571115195.8,286047000.3,N
1571115215.7,286046998.8,N
1571115235.5,286047000.8,N
1571115255.3,286046996.6,N
1571115275.2,286046997.9,N
1571115295.0,286046998.1,N
1571115295.9,286046998.1,N
1571115315.8,286046999.9,N
1571115335.6,286047001.2,N
1571115355.4,286047001.2,N
1571115375.3,286047001.6,N
1571115395.1,286047002.8,N
1571115415.9,286046999.7,N
1571115435.7,286047002.7,N
1571115455.5,286047001.0,N
1571115475.4,286047000.8,N
1571115495.2,286047000.8,N
1571115515.0,286046999.5,N
1571115515.9,286046999.5,N
1571115535.8,286047002.3,N
1571115555.6,286046999.8,N
1571115575.5,286047000.8,N
1571115595.3,286047000.9,N
